Location: Ripley
(48.3812°N, 115.4473°W)
Time: 12:47:02
(UTC+00:00)

AIST 2D - Pass Details

Date: 02 July 2022
Orbit: 433 x 443 km, 97.0° (Epoch: 11 August)

Event Time Altitude Azimuth Distance (km) Brightness Sun altitude
Rises 05:58:06 0° 4° (N) 2,427 ? -14.6°
Reaches altitude 10° 06:00:15 10° 354° (N) 1,555 ? -14.8°
Maximum altitude 06:03:15 32° 290° (WNW) 776 ? -15.0°
Drops below altitude 10° 06:06:15 10° 225° (SW) 1,548 ? -15.2°
Enters shadow 06:06:34 - 223° (SW) 1,677 ? -15.2°
